Time,TemperatureF,DewpointF,PressureIn,WindDirection,WindDirectionDegrees,WindSpeedMPH,WindSpeedGustMPH,Humidity,HourlyPrecipIn,Conditions,Clouds,dailyrainin,SoftwareType,DateUTC
2013-06-15 00:01:00,58.4,57.5,29.86,NW,304,0.0,0.0,97,0.00,,,0.00,WUHU216DAVISWMX,2013-06-15 04:01:00,
2013-06-15 00:06:00,58.3,57.4,29.86,NW,304,0.0,0.0,97,0.00,,,0.00,WUHU216DAVISWMX,2013-06-15 04:06:00,
2013-06-15 00:11:00,58.0,57.1,29.86,NW,304,0.0,0.0,97,0.00,,,0.00,WUHU216DAVISWMX,2013-06-15 04:11:00,
2013-06-15 00:16:00,58.0,57.1,29.86,NW,304,0.0,0.0,97,0.00,,,0.00,WUHU216DAVISWMX,2013-06-15 04:16:00,
2013-06-15 00:21:00,57.8,56.9,29.86,NW,304,0.0,0.0,97,0.00,,,0.00,WUHU216DAVISWMX,2013-06-15 04:21:00,
2013-06-15 00:26:00,57.7,57.1,29.86,NW,304,0.0,0.0,98,0.00,,,0.00,WUHU216DAVISWMX,2013-06-15 04:26:00,
2013-06-15 00:31:00,57.5,56.6,29.86,NW,304,0.0,0.0,97,0.00,,,0.00,WUHU216DAVISWMX,2013-06-15 04:31:00,
2013-06-15 00:36:00,57.5,56.6,29.86,NW,304,0.0,0.0,97,0.00,,,0.00,WUHU216DAVISWMX,2013-06-15 04:36:00,
2013-06-15 00:41:00,57.4,56.8,29.86,NW,304,0.0,0.0,98,0.00,,,0.00,WUHU216DAVISWMX,2013-06-15 04:41:00,
2013-06-15 00:46:00,57.2,56.6,29.86,NW,304,0.0,0.0,98,0.00,,,0.00,WUHU216DAVISWMX,2013-06-15 04:46:00,
2013-06-15 00:51:00,57.2,56.6,29.86,NW,304,0.0,0.0,98,0.00,,,0.00,WUHU216DAVISWMX,2013-06-15 04:51:00,
2013-06-15 00:56:00,57.1,56.5,29.86,NW,304,0.0,0.0,98,0.00,,,0.00,WUHU216DAVISWMX,2013-06-15 04:56:00,
2013-06-15 01:01:00,57.0,56.4,29.87,NW,304,0.0,0.0,98,0.00,,,0.00,WUHU216DAVISWMX,2013-06-15 05:01:00,
2013-06-15 01:06:00,56.8,56.2,29.87,NW,304,0.0,0.0,98,0.00,,,0.00,WUHU216DAVISWMX,2013-06-15 05:06:00,
2013-06-15 01:11:00,56.8,56.5,29.86,NW,304,0.0,0.0,99,0.00,,,0.00,WUHU216DAVISWMX,2013-06-15 05:11:00,
2013-06-15 01:16:00,56.7,56.4,29.86,NW,304,0.0,0.0,99,0.00,,,0.00,WUHU216DAVISWMX,2013-06-15 05:16:00,
2013-06-15 01:21:00,56.7,56.4,29.87,NW,304,0.0,0.0,99,0.00,,,0.00,WUHU216DAVISWMX,2013-06-15 05:21:00,
2013-06-15 01:26:00,56.5,56.2,29.87,NW,304,0.0,0.0,99,0.00,,,0.00,WUHU216DAVISWMX,2013-06-15 05:26:00,
2013-06-15 01:31:00,56.5,56.2,29.86,NW,304,0.0,0.0,99,0.00,,,0.00,WUHU216DAVISWMX,2013-06-15 05:31:00,
2013-06-15 01:36:00,56.3,56.0,29.87,NW,304,0.0,0.0,99,0.00,,,0.00,WUHU216DAVISWMX,2013-06-15 05:36:00,
2013-06-15 01:41:00,56.3,56.0,29.87,NW,304,0.0,0.0,99,0.00,,,0.00,WUHU216DAVISWMX,2013-06-15 05:41:00,
2013-06-15 01:46:00,56.2,55.9,29.87,NW,304,0.0,0.0,99,0.00,,,0.00,WUHU216DAVISWMX,2013-06-15 05:46:00,
2013-06-15 01:51:00,56.1,55.8,29.87,NW,304,0.0,0.0,99,0.00,,,0.00,WUHU216DAVISWMX,2013-06-15 05:51:00,
2013-06-15 01:56:00,56.0,55.7,29.87,NW,304,0.0,0.0,99,0.00,,,0.00,WUHU216DAVISWMX,2013-06-15 05:56:00,
2013-06-15 02:01:00,56.0,55.7,29.88,NW,304,0.0,0.0,99,0.00,,,0.00,WUHU216DAVISWMX,2013-06-15 06:01:00,
2013-06-15 02:06:00,55.9,55.6,29.88,NW,304,0.0,0.0,99,0.00,,,0.00,WUHU216DAVISWMX,2013-06-15 06:06:00,
2013-06-15 02:11:00,55.9,55.6,29.88,NW,304,0.0,0.0,99,0.00,,,0.00,WUHU216DAVISWMX,2013-06-15 06:11:00,
2013-06-15 02:16:00,55.7,55.4,29.88,NW,304,0.0,0.0,99,0.00,,,0.00,WUHU216DAVISWMX,2013-06-15 06:16:00,
2013-06-15 02:21:00,55.6,55.3,29.88,NW,304,0.0,0.0,99,0.00,,,0.00,WUHU216DAVISWMX,2013-06-15 06:21:00,
2013-06-15 02:26:00,55.5,55.2,29.89,NW,304,0.0,0.0,99,0.00,,,0.00,WUHU216DAVISWMX,2013-06-15 06:26:00,
2013-06-15 02:31:00,55.4,55.1,29.89,NW,304,0.0,0.0,99,0.00,,,0.00,WUHU216DAVISWMX,2013-06-15 06:31:00,
2013-06-15 02:36:00,55.3,55.3,29.89,NW,304,0.0,0.0,100,0.00,,,0.00,WUHU216DAVISWMX,2013-06-15 06:36:00,
2013-06-15 02:41:00,55.2,55.2,29.89,NW,304,0.0,0.0,100,0.00,,,0.00,WUHU216DAVISWMX,2013-06-15 06:41:00,
2013-06-15 02:46:00,55.2,54.9,29.89,NW,304,0.0,0.0,99,0.00,,,0.00,WUHU216DAVISWMX,2013-06-15 06:46:00,
2013-06-15 02:51:00,55.1,54.8,29.90,NW,304,0.0,0.0,99,0.00,,,0.00,WUHU216DAVISWMX,2013-06-15 06:51:00,
2013-06-15 02:56:00,55.0,55.0,29.90,NW,304,0.0,0.0,100,0.00,,,0.00,WUHU216DAVISWMX,2013-06-15 06:56:00,
2013-06-15 03:01:00,54.9,54.9,29.90,NW,304,0.0,0.0,100,0.00,,,0.00,WUHU216DAVISWMX,2013-06-15 07:01:00,
2013-06-15 03:06:00,54.7,54.7,29.90,NW,304,0.0,0.0,100,0.00,,,0.00,WUHU216DAVISWMX,2013-06-15 07:06:00,
2013-06-15 03:11:00,54.6,54.6,29.90,NW,304,0.0,0.0,100,0.00,,,0.00,WUHU216DAVISWMX,2013-06-15 07:11:00,
2013-06-15 03:16:00,54.6,54.6,29.90,NW,304,0.0,0.0,100,0.00,,,0.00,WUHU216DAVISWMX,2013-06-15 07:16:00,
2013-06-15 03:21:00,54.5,54.5,29.90,NW,304,0.0,0.0,100,0.00,,,0.00,WUHU216DAVISWMX,2013-06-15 07:21:00,
2013-06-15 03:26:00,54.5,54.5,29.91,NW,304,0.0,0.0,100,0.00,,,0.00,WUHU216DAVISWMX,2013-06-15 07:26:00,
2013-06-15 03:31:00,54.3,54.3,29.91,NW,304,0.0,0.0,100,0.00,,,0.00,WUHU216DAVISWMX,2013-06-15 07:31:00,
2013-06-15 03:36:00,54.2,54.2,29.91,NW,304,0.0,0.0,100,0.00,,,0.00,WUHU216DAVISWMX,2013-06-15 07:36:00,
2013-06-15 03:41:00,54.1,54.1,29.91,NW,304,0.0,0.0,100,0.00,,,0.00,WUHU216DAVISWMX,2013-06-15 07:41:00,
2013-06-15 03:46:00,54.1,54.1,29.91,NW,304,0.0,0.0,100,0.00,,,0.00,WUHU216DAVISWMX,2013-06-15 07:46:00,
2013-06-15 03:51:00,54.0,54.0,29.91,NW,304,0.0,0.0,100,0.00,,,0.00,WUHU216DAVISWMX,2013-06-15 07:51:00,
2013-06-15 03:56:00,54.0,54.0,29.92,NW,304,0.0,0.0,100,0.00,,,0.00,WUHU216DAVISWMX,2013-06-15 07:56:00,
2013-06-15 04:01:00,53.9,53.9,29.92,NW,304,0.0,0.0,100,0.00,,,0.00,WUHU216DAVISWMX,2013-06-15 08:01:00,
2013-06-15 04:06:00,53.9,53.9,29.92,NW,304,0.0,0.0,100,0.00,,,0.00,WUHU216DAVISWMX,2013-06-15 08:06:00,
2013-06-15 04:11:00,53.8,53.8,29.92,NW,304,0.0,0.0,100,0.00,,,0.00,WUHU216DAVISWMX,2013-06-15 08:11:00,
2013-06-15 04:16:00,53.7,53.7,29.92,NW,304,0.0,0.0,100,0.00,,,0.00,WUHU216DAVISWMX,2013-06-15 08:16:00,
2013-06-15 04:21:00,53.6,53.6,29.92,NW,304,0.0,0.0,100,0.00,,,0.00,WUHU216DAVISWMX,2013-06-15 08:21:00,
2013-06-15 04:26:00,53.5,53.5,29.92,NW,304,0.0,0.0,100,0.00,,,0.00,WUHU216DAVISWMX,2013-06-15 08:26:00,
2013-06-15 04:31:00,53.5,53.5,29.93,NW,304,0.0,0.0,100,0.00,,,0.00,WUHU216DAVISWMX,2013-06-15 08:31:00,
2013-06-15 04:36:00,53.4,53.4,29.93,NW,304,0.0,0.0,100,0.00,,,0.00,WUHU216DAVISWMX,2013-06-15 08:36:00,
2013-06-15 04:41:00,53.3,53.3,29.93,NW,304,0.0,0.0,100,0.00,,,0.00,WUHU216DAVISWMX,2013-06-15 08:41:00,
2013-06-15 04:46:00,53.2,53.2,29.93,NW,304,0.0,0.0,100,0.00,,,0.00,WUHU216DAVISWMX,2013-06-15 08:46:00,
2013-06-15 04:51:00,53.1,53.1,29.93,NW,304,0.0,0.0,100,0.00,,,0.00,WUHU216DAVISWMX,2013-06-15 08:51:00,
2013-06-15 04:56:00,52.9,52.9,29.93,NW,304,0.0,0.0,100,0.00,,,0.00,WUHU216DAVISWMX,2013-06-15 08:56:00,
2013-06-15 05:01:00,52.7,52.4,29.94,NW,304,0.0,0.0,99,0.00,,,0.00,WUHU216DAVISWMX,2013-06-15 09:01:00,
2013-06-15 05:07:00,52.6,52.6,29.94,NW,304,0.0,0.0,100,0.00,,,0.00,WUHU216DAVISWMX,2013-06-15 09:07:00,
2013-06-15 05:12:00,52.6,52.6,29.94,NW,304,0.0,0.0,100,0.01,,,0.01,WUHU216DAVISWMX,2013-06-15 09:12:00,
2013-06-15 05:17:00,52.5,52.5,29.95,NW,304,0.0,0.0,100,0.01,,,0.01,WUHU216DAVISWMX,2013-06-15 09:17:00,
2013-06-15 05:22:00,52.4,52.4,29.95,NW,304,0.0,0.0,100,0.01,,,0.01,WUHU216DAVISWMX,2013-06-15 09:22:00,
2013-06-15 05:27:00,52.2,52.2,29.95,NW,304,0.0,0.0,100,0.01,,,0.01,WUHU216DAVISWMX,2013-06-15 09:27:00,
2013-06-15 05:32:00,52.2,52.2,29.95,NW,304,0.0,0.0,100,0.01,,,0.01,WUHU216DAVISWMX,2013-06-15 09:32:00,
2013-06-15 05:37:00,52.1,52.1,29.96,NW,304,0.0,0.0,100,0.01,,,0.01,WUHU216DAVISWMX,2013-06-15 09:37:00,
2013-06-15 05:42:00,52.0,52.0,29.96,NW,304,0.0,0.0,100,0.01,,,0.01,WUHU216DAVISWMX,2013-06-15 09:42:00,
2013-06-15 05:47:00,52.0,52.0,29.96,NW,304,0.0,0.0,100,0.01,,,0.01,WUHU216DAVISWMX,2013-06-15 09:47:00,
2013-06-15 05:52:00,52.0,52.0,29.97,NW,304,0.0,0.0,100,0.01,,,0.01,WUHU216DAVISWMX,2013-06-15 09:52:00,
2013-06-15 05:57:00,51.8,51.8,29.97,NW,304,0.0,0.0,100,0.01,,,0.01,WUHU216DAVISWMX,2013-06-15 09:57:00,
2013-06-15 06:02:00,51.8,51.8,29.97,NW,304,0.0,0.0,100,0.01,,,0.01,WUHU216DAVISWMX,2013-06-15 10:02:00,
2013-06-15 06:07:00,51.9,51.9,29.97,NW,304,0.0,0.0,100,0.01,,,0.01,WUHU216DAVISWMX,2013-06-15 10:07:00,
2013-06-15 06:12:00,51.8,51.8,29.97,NW,304,0.0,0.0,100,0.00,,,0.01,WUHU216DAVISWMX,2013-06-15 10:12:00,
2013-06-15 06:17:00,51.9,51.9,29.97,NW,304,0.0,0.0,100,0.00,,,0.01,WUHU216DAVISWMX,2013-06-15 10:17:00,
2013-06-15 06:22:00,52.0,52.0,29.97,NW,304,0.0,0.0,100,0.00,,,0.01,WUHU216DAVISWMX,2013-06-15 10:22:00,
2013-06-15 06:27:00,52.1,52.1,29.97,NW,304,0.0,0.0,100,0.00,,,0.01,WUHU216DAVISWMX,2013-06-15 10:27:00,
2013-06-15 06:32:00,52.3,52.3,29.97,NW,304,0.0,0.0,100,0.00,,,0.01,WUHU216DAVISWMX,2013-06-15 10:32:00,
2013-06-15 06:37:00,52.4,52.4,29.97,NW,304,0.0,0.0,100,0.00,,,0.01,WUHU216DAVISWMX,2013-06-15 10:37:00,
2013-06-15 06:42:00,52.6,52.6,29.97,NW,304,0.0,0.0,100,0.00,,,0.01,WUHU216DAVISWMX,2013-06-15 10:42:00,
2013-06-15 06:47:00,52.8,52.8,29.97,NW,304,0.0,0.0,100,0.00,,,0.01,WUHU216DAVISWMX,2013-06-15 10:47:00,
2013-06-15 06:52:00,53.0,53.0,29.98,NW,304,0.0,0.0,100,0.00,,,0.01,WUHU216DAVISWMX,2013-06-15 10:52:00,
2013-06-15 06:57:00,53.1,53.1,29.98,NW,304,0.0,1.0,100,0.00,,,0.01,WUHU216DAVISWMX,2013-06-15 10:57:00,
2013-06-15 07:02:00,53.5,53.5,29.98,NW,304,0.0,1.0,100,0.00,,,0.01,WUHU216DAVISWMX,2013-06-15 11:02:00,
2013-06-15 07:07:00,53.7,53.7,29.98,NW,304,0.0,0.0,100,0.00,,,0.01,WUHU216DAVISWMX,2013-06-15 11:07:00,
2013-06-15 07:12:00,53.8,53.8,29.98,NW,304,0.0,1.0,100,0.00,,,0.01,WUHU216DAVISWMX,2013-06-15 11:12:00,
2013-06-15 07:17:00,54.2,54.2,29.98,NW,304,0.0,1.0,100,0.00,,,0.01,WUHU216DAVISWMX,2013-06-15 11:17:00,
2013-06-15 07:22:00,54.4,54.4,29.98,NW,304,1.0,3.0,100,0.00,,,0.01,WUHU216DAVISWMX,2013-06-15 11:22:00,
2013-06-15 07:27:00,54.7,54.7,29.98,NW,304,1.0,3.0,100,0.00,,,0.01,WUHU216DAVISWMX,2013-06-15 11:27:00,
2013-06-15 07:32:00,54.9,54.6,29.99,NW,304,1.0,2.0,99,0.00,,,0.01,WUHU216DAVISWMX,2013-06-15 11:32:00,
2013-06-15 07:37:00,55.2,54.6,29.98,NW,304,2.0,3.0,98,0.00,,,0.01,WUHU216DAVISWMX,2013-06-15 11:37:00,
2013-06-15 07:42:00,55.6,54.7,29.98,NW,304,0.0,3.0,97,0.00,,,0.01,WUHU216DAVISWMX,2013-06-15 11:42:00,
2013-06-15 07:47:00,55.9,55.0,29.98,NW,304,0.0,2.0,97,0.00,,,0.01,WUHU216DAVISWMX,2013-06-15 11:47:00,
2013-06-15 07:52:00,56.3,54.8,29.99,NW,313,0.0,3.0,95,0.00,,,0.01,WUHU216DAVISWMX,2013-06-15 11:52:00,
2013-06-15 07:57:00,56.8,54.2,29.99,NW,313,1.0,4.0,91,0.00,,,0.01,WUHU216DAVISWMX,2013-06-15 11:57:00,
2013-06-15 08:02:00,57.3,54.4,29.99,NW,313,0.0,4.0,90,0.00,,,0.01,WUHU216DAVISWMX,2013-06-15 12:02:00,
2013-06-15 08:07:00,57.7,54.8,30.00,NW,307,1.0,3.0,90,0.00,,,0.01,WUHU216DAVISWMX,2013-06-15 12:07:00,
2013-06-15 08:12:00,58.1,54.8,30.00,NW,307,0.0,3.0,89,0.00,,,0.01,WUHU216DAVISWMX,2013-06-15 12:12:00,
2013-06-15 08:17:00,58.5,54.3,30.00,NW,307,0.0,3.0,86,0.00,,,0.01,WUHU216DAVISWMX,2013-06-15 12:17:00,
2013-06-15 08:22:00,59.0,53.9,30.00,NW,304,3.0,4.0,83,0.00,,,0.01,WUHU216DAVISWMX,2013-06-15 12:22:00,
2013-06-15 08:33:00,60.3,55.5,30.00,NW,314,0.0,0.0,84,0.00,,,0.01,WUHU216DAVISWMX,2013-06-15 12:33:00,
2013-06-15 08:41:00,62.0,55.5,30.00,NW,312,1.0,4.0,79,0.00,,,0.01,WUHU216DAVISWMX,2013-06-15 12:41:00,
2013-06-15 08:46:00,63.3,56.8,30.00,NW,312,0.0,4.0,79,0.00,,,0.01,WUHU216DAVISWMX,2013-06-15 12:46:00,
2013-06-15 08:51:00,64.4,57.1,30.00,WNW,294,2.0,2.0,77,0.00,,,0.01,WUHU216DAVISWMX,2013-06-15 12:51:00,
2013-06-15 08:56:00,65.2,56.5,30.00,NW,306,0.0,3.0,73,0.00,,,0.01,WUHU216DAVISWMX,2013-06-15 12:56:00,
2013-06-15 09:01:00,66.3,58.6,30.00,NW,307,4.0,4.0,76,0.00,,,0.01,WUHU216DAVISWMX,2013-06-15 13:01:00,
2013-06-15 09:06:00,67.0,57.8,30.00,NW,315,1.0,4.0,72,0.00,,,0.01,WUHU216DAVISWMX,2013-06-15 13:06:00,
2013-06-15 09:11:00,67.6,58.4,30.00,NW,315,0.0,3.0,72,0.00,,,0.01,WUHU216DAVISWMX,2013-06-15 13:11:00,
2013-06-15 09:16:00,68.3,57.9,30.00,NW,321,1.0,2.0,69,0.00,,,0.01,WUHU216DAVISWMX,2013-06-15 13:16:00,
2013-06-15 09:21:00,68.6,57.8,30.00,NNW,328,2.0,3.0,68,0.00,,,0.01,WUHU216DAVISWMX,2013-06-15 13:21:00,
2013-06-15 09:26:00,69.1,58.3,30.00,NNW,328,0.0,3.0,68,0.00,,,0.01,WUHU216DAVISWMX,2013-06-15 13:26:00,
2013-06-15 09:31:00,69.8,57.3,30.00,NNW,328,1.0,2.0,64,0.00,,,0.01,WUHU216DAVISWMX,2013-06-15 13:31:00,
2013-06-15 09:36:00,70.1,56.7,30.00,North,0,0.0,5.0,62,0.00,,,0.01,WUHU216DAVISWMX,2013-06-15 13:36:00,
2013-06-15 09:41:00,70.5,56.6,30.00,NNW,331,2.0,8.0,61,0.00,,,0.01,WUHU216DAVISWMX,2013-06-15 13:41:00,
2013-06-15 09:46:00,70.4,55.6,30.00,NW,307,4.0,8.0,59,0.00,,,0.01,WUHU216DAVISWMX,2013-06-15 13:46:00,
2013-06-15 09:51:00,70.7,55.8,30.00,NW,321,0.0,5.0,59,0.00,,,0.01,WUHU216DAVISWMX,2013-06-15 13:51:00,
2013-06-15 09:56:00,71.1,55.7,30.00,North,0,0.0,4.0,58,0.00,,,0.01,WUHU216DAVISWMX,2013-06-15 13:56:00,
2013-06-15 10:01:00,71.4,55.5,30.00,NNE,33,1.0,6.0,57,0.00,,,0.01,WUHU216DAVISWMX,2013-06-15 14:01:00,
2013-06-15 10:06:00,71.5,57.1,30.00,NNE,33,0.0,6.0,60,0.00,,,0.01,WUHU216DAVISWMX,2013-06-15 14:06:00,
2013-06-15 10:11:00,72.0,56.1,30.00,WNW,299,1.0,5.0,57,0.00,,,0.01,WUHU216DAVISWMX,2013-06-15 14:11:00,
2013-06-15 10:16:00,72.0,54.6,30.00,NE,36,1.0,5.0,54,0.00,,,0.01,WUHU216DAVISWMX,2013-06-15 14:16:00,
2013-06-15 10:21:00,72.1,57.6,30.00,NW,313,1.0,3.0,60,0.00,,,0.01,WUHU216DAVISWMX,2013-06-15 14:21:00,
2013-06-15 10:26:00,72.3,55.9,30.00,West,277,0.0,6.0,56,0.00,,,0.01,WUHU216DAVISWMX,2013-06-15 14:26:00,
2013-06-15 10:31:00,72.5,55.6,30.00,NE,35,2.0,6.0,55,0.00,,,0.01,WUHU216DAVISWMX,2013-06-15 14:31:00,
2013-06-15 10:36:00,72.8,55.8,30.00,NW,324,2.0,6.0,55,0.00,,,0.01,WUHU216DAVISWMX,2013-06-15 14:36:00,
2013-06-15 10:41:00,73.0,54.4,30.00,WNW,298,3.0,7.0,52,0.00,,,0.01,WUHU216DAVISWMX,2013-06-15 14:41:00,
2013-06-15 10:46:00,72.8,54.8,30.00,NW,318,5.0,9.0,53,0.00,,,0.01,WUHU216DAVISWMX,2013-06-15 14:46:00,
2013-06-15 10:51:00,72.8,55.8,29.99,NNW,346,3.0,9.0,55,0.00,,,0.01,WUHU216DAVISWMX,2013-06-15 14:51:00,
2013-06-15 10:56:00,73.0,56.0,29.99,NW,310,2.0,5.0,55,0.00,,,0.01,WUHU216DAVISWMX,2013-06-15 14:56:00,
2013-06-15 11:01:00,73.2,57.2,29.99,NW,318,2.0,7.0,57,0.00,,,0.01,WUHU216DAVISWMX,2013-06-15 15:01:00,
2013-06-15 11:06:00,73.6,56.1,29.99,WNW,285,0.0,7.0,54,0.00,,,0.01,WUHU216DAVISWMX,2013-06-15 15:06:00,
2013-06-15 11:11:00,73.7,55.6,29.99,NW,317,2.0,4.0,53,0.00,,,0.01,WUHU216DAVISWMX,2013-06-15 15:11:00,
2013-06-15 11:16:00,73.8,56.8,29.99,NNW,336,5.0,5.0,55,0.00,,,0.01,WUHU216DAVISWMX,2013-06-15 15:16:00,
2013-06-15 11:21:00,73.7,55.1,29.99,NW,312,3.0,6.0,52,0.00,,,0.01,WUHU216DAVISWMX,2013-06-15 15:21:00,
2013-06-15 11:26:00,73.8,56.8,29.99,NW,319,1.0,6.0,55,0.00,,,0.01,WUHU216DAVISWMX,2013-06-15 15:26:00,
2013-06-15 11:31:00,73.7,55.6,29.99,NW,316,2.0,5.0,53,0.00,,,0.01,WUHU216DAVISWMX,2013-06-15 15:31:00,
2013-06-15 11:36:00,73.4,55.4,29.99,North,357,0.0,4.0,53,0.00,,,0.01,WUHU216DAVISWMX,2013-06-15 15:36:00,
2013-06-15 11:41:00,73.4,54.8,29.99,North,356,2.0,4.0,52,0.00,,,0.01,WUHU216DAVISWMX,2013-06-15 15:41:00,
2013-06-15 11:46:00,73.3,55.8,29.99,NW,322,6.0,9.0,54,0.00,,,0.01,WUHU216DAVISWMX,2013-06-15 15:46:00,
2013-06-15 11:51:00,73.3,53.6,29.99,NW,308,2.0,9.0,50,0.00,,,0.01,WUHU216DAVISWMX,2013-06-15 15:51:00,
2013-06-15 11:56:00,73.7,56.2,29.99,NE,51,1.0,4.0,54,0.00,,,0.01,WUHU216DAVISWMX,2013-06-15 15:56:00,
2013-06-15 12:01:00,74.0,57.0,29.99,WNW,285,1.0,4.0,55,0.00,,,0.01,WUHU216DAVISWMX,2013-06-15 16:01:00,
2013-06-15 12:06:00,74.1,54.9,29.99,NNW,331,2.0,4.0,51,0.00,,,0.01,WUHU216DAVISWMX,2013-06-15 16:06:00,
2013-06-15 12:11:00,74.2,57.1,29.99,NW,311,1.0,4.0,55,0.00,,,0.01,WUHU216DAVISWMX,2013-06-15 16:11:00,
2013-06-15 12:16:00,74.3,56.2,29.98,NW,311,1.0,4.0,53,0.00,,,0.01,WUHU216DAVISWMX,2013-06-15 16:16:00,
2013-06-15 12:21:00,74.3,54.5,29.98,NW,311,0.0,2.0,50,0.00,,,0.01,WUHU216DAVISWMX,2013-06-15 16:21:00,
2013-06-15 12:26:00,74.4,55.7,29.98,NW,317,2.0,3.0,52,0.00,,,0.01,WUHU216DAVISWMX,2013-06-15 16:26:00,
2013-06-15 12:31:00,74.4,55.7,29.99,NW,319,1.0,5.0,52,0.00,,,0.01,WUHU216DAVISWMX,2013-06-15 16:31:00,
2013-06-15 12:36:00,74.3,57.2,29.98,SW,235,2.0,5.0,55,0.00,,,0.01,WUHU216DAVISWMX,2013-06-15 16:36:00,
2013-06-15 12:41:00,74.7,57.6,29.98,NW,317,1.0,4.0,55,0.00,,,0.01,WUHU216DAVISWMX,2013-06-15 16:41:00,
2013-06-15 12:46:00,75.0,57.9,29.99,NNW,335,4.0,5.0,55,0.00,,,0.01,WUHU216DAVISWMX,2013-06-15 16:46:00,
2013-06-15 12:51:00,74.7,54.9,29.98,NW,316,0.0,7.0,50,0.00,,,0.01,WUHU216DAVISWMX,2013-06-15 16:51:00,
2013-06-15 12:56:00,75.0,57.9,29.98,West,279,1.0,7.0,55,0.00,,,0.01,WUHU216DAVISWMX,2013-06-15 16:56:00,
2013-06-15 13:01:00,75.2,54.2,29.98,NW,318,3.0,8.0,48,0.00,,,0.01,WUHU216DAVISWMX,2013-06-15 17:01:00,
2013-06-15 13:06:00,74.7,55.5,29.98,NW,319,5.0,8.0,51,0.00,,,0.01,WUHU216DAVISWMX,2013-06-15 17:06:00,
2013-06-15 13:11:00,74.6,55.9,29.98,NW,322,2.0,7.0,52,0.00,,,0.01,WUHU216DAVISWMX,2013-06-15 17:11:00,
2013-06-15 13:16:00,74.7,54.9,29.98,NW,319,1.0,5.0,50,0.00,,,0.01,WUHU216DAVISWMX,2013-06-15 17:16:00,
2013-06-15 13:21:00,74.9,57.3,29.97,NW,323,1.0,3.0,54,0.00,,,0.01,WUHU216DAVISWMX,2013-06-15 17:21:00,
2013-06-15 13:26:00,75.0,55.7,29.97,NW,307,2.0,6.0,51,0.00,,,0.01,WUHU216DAVISWMX,2013-06-15 17:26:00,
2013-06-15 13:31:00,74.8,56.7,29.97,NW,320,2.0,6.0,53,0.00,,,0.01,WUHU216DAVISWMX,2013-06-15 17:31:00,
2013-06-15 13:36:00,75.3,56.6,29.97,WNW,295,4.0,5.0,52,0.00,,,0.01,WUHU216DAVISWMX,2013-06-15 17:36:00,
2013-06-15 13:41:00,75.6,56.3,29.97,NW,309,3.0,5.0,51,0.00,,,0.01,WUHU216DAVISWMX,2013-06-15 17:41:00,
2013-06-15 13:46:00,75.6,54.6,29.97,NNE,19,1.0,4.0,48,0.00,,,0.01,WUHU216DAVISWMX,2013-06-15 17:46:00,
2013-06-15 13:51:00,75.4,55.6,29.97,NW,316,1.0,12.0,50,0.00,,,0.01,WUHU216DAVISWMX,2013-06-15 17:51:00,
2013-06-15 13:56:00,75.4,58.8,29.97,NW,311,0.0,12.0,56,0.00,,,0.01,WUHU216DAVISWMX,2013-06-15 17:56:00,
2013-06-15 14:01:00,75.6,55.7,29.97,WNW,302,3.0,5.0,50,0.00,,,0.01,WUHU216DAVISWMX,2013-06-15 18:01:00,
2013-06-15 14:06:00,75.8,55.3,29.97,NW,324,1.0,5.0,49,0.00,,,0.01,WUHU216DAVISWMX,2013-06-15 18:06:00,
2013-06-15 14:11:00,75.6,55.7,29.97,North,350,2.0,8.0,50,0.00,,,0.01,WUHU216DAVISWMX,2013-06-15 18:11:00,
2013-06-15 14:16:00,76.0,55.5,29.97,NW,314,0.0,8.0,49,0.00,,,0.01,WUHU216DAVISWMX,2013-06-15 18:16:00,
2013-06-15 14:21:00,75.9,53.0,29.96,NW,319,3.0,5.0,45,0.00,,,0.01,WUHU216DAVISWMX,2013-06-15 18:21:00,
2013-06-15 14:26:00,75.8,55.3,29.96,NNW,331,0.0,7.0,49,0.00,,,0.01,WUHU216DAVISWMX,2013-06-15 18:26:00,
2013-06-15 14:31:00,76.1,55.0,29.96,NW,323,1.0,7.0,48,0.00,,,0.01,WUHU216DAVISWMX,2013-06-15 18:31:00,
2013-06-15 14:36:00,76.1,55.0,29.96,NW,311,1.0,5.0,48,0.00,,,0.01,WUHU216DAVISWMX,2013-06-15 18:36:00,
2013-06-15 14:41:00,76.3,54.0,29.95,NW,319,1.0,5.0,46,0.00,,,0.01,WUHU216DAVISWMX,2013-06-15 18:41:00,
2013-06-15 14:46:00,76.2,56.9,29.95,NW,318,2.0,3.0,51,0.00,,,0.01,WUHU216DAVISWMX,2013-06-15 18:46:00,
2013-06-15 14:51:00,76.4,55.9,29.95,West,272,2.0,5.0,49,0.00,,,0.01,WUHU216DAVISWMX,2013-06-15 18:51:00,
2013-06-15 14:56:00,76.6,56.1,29.95,WSW,253,2.0,5.0,49,0.00,,,0.01,WUHU216DAVISWMX,2013-06-15 18:56:00,
2013-06-15 15:01:00,76.5,56.0,29.95,NW,317,1.0,4.0,49,0.00,,,0.01,WUHU216DAVISWMX,2013-06-15 19:01:00,
2013-06-15 15:06:00,76.5,56.0,29.95,WNW,286,3.0,9.0,49,0.00,,,0.01,WUHU216DAVISWMX,2013-06-15 19:06:00,
2013-06-15 15:11:00,76.5,54.2,29.95,NW,318,1.0,9.0,46,0.00,,,0.01,WUHU216DAVISWMX,2013-06-15 19:11:00,
2013-06-15 15:16:00,76.5,54.2,29.95,NW,321,2.0,8.0,46,0.00,,,0.01,WUHU216DAVISWMX,2013-06-15 19:16:00,
2013-06-15 15:21:00,76.7,54.4,29.95,NW,311,4.0,8.0,46,0.00,,,0.01,WUHU216DAVISWMX,2013-06-15 19:21:00,
2013-06-15 15:26:00,76.6,53.7,29.94,WSW,254,1.0,5.0,45,0.00,,,0.01,WUHU216DAVISWMX,2013-06-15 19:26:00,
2013-06-15 15:31:00,76.6,53.0,29.94,WNW,294,1.0,8.0,44,0.00,,,0.01,WUHU216DAVISWMX,2013-06-15 19:31:00,
2013-06-15 15:36:00,76.4,53.5,29.95,NW,304,0.0,8.0,45,0.00,,,0.01,WUHU216DAVISWMX,2013-06-15 19:36:00,
2013-06-15 15:41:00,76.3,52.8,29.94,NNW,328,1.0,6.0,44,0.00,,,0.01,WUHU216DAVISWMX,2013-06-15 19:41:00,
2013-06-15 15:46:00,76.1,55.0,29.94,NW,321,0.0,8.0,48,0.00,,,0.01,WUHU216DAVISWMX,2013-06-15 19:46:00,
2013-06-15 15:51:00,76.0,53.7,29.94,NW,313,4.0,8.0,46,0.00,,,0.01,WUHU216DAVISWMX,2013-06-15 19:51:00,
2013-06-15 15:56:00,75.8,54.2,29.94,NW,318,2.0,5.0,47,0.00,,,0.01,WUHU216DAVISWMX,2013-06-15 19:56:00,
2013-06-15 16:01:00,75.8,54.8,29.94,NW,326,5.0,5.0,48,0.00,,,0.01,WUHU216DAVISWMX,2013-06-15 20:01:00,
2013-06-15 16:06:00,75.8,54.8,29.95,WNW,285,3.0,7.0,48,0.00,,,0.01,WUHU216DAVISWMX,2013-06-15 20:06:00,
2013-06-15 16:11:00,75.7,54.1,29.95,NW,321,3.0,9.0,47,0.00,,,0.01,WUHU216DAVISWMX,2013-06-15 20:11:00,
2013-06-15 16:16:00,75.7,55.3,29.94,NW,315,1.0,9.0,49,0.00,,,0.01,WUHU216DAVISWMX,2013-06-15 20:16:00,
2013-06-15 16:21:00,75.5,53.3,29.94,North,358,1.0,8.0,46,0.00,,,0.01,WUHU216DAVISWMX,2013-06-15 20:21:00,
2013-06-15 16:26:00,75.4,52.6,29.94,WNW,300,3.0,6.0,45,0.00,,,0.01,WUHU216DAVISWMX,2013-06-15 20:26:00,
2013-06-15 16:31:00,75.4,53.2,29.94,WSW,251,3.0,6.0,46,0.00,,,0.01,WUHU216DAVISWMX,2013-06-15 20:31:00,
2013-06-15 16:36:00,75.4,55.0,29.94,North,0,2.0,6.0,49,0.00,,,0.01,WUHU216DAVISWMX,2013-06-15 20:36:00,
2013-06-15 16:41:00,75.4,53.8,29.94,West,268,0.0,5.0,47,0.00,,,0.01,WUHU216DAVISWMX,2013-06-15 20:41:00,
2013-06-15 16:46:00,75.3,53.7,29.94,NW,321,0.0,5.0,47,0.00,,,0.01,WUHU216DAVISWMX,2013-06-15 20:46:00,
2013-06-15 16:51:00,75.3,51.2,29.94,NW,316,2.0,7.0,43,0.00,,,0.01,WUHU216DAVISWMX,2013-06-15 20:51:00,
2013-06-15 16:56:00,75.2,52.4,29.94,NW,319,0.0,7.0,45,0.00,,,0.01,WUHU216DAVISWMX,2013-06-15 20:56:00,
2013-06-15 17:01:00,75.4,52.6,29.94,NNW,333,3.0,5.0,45,0.00,,,0.01,WUHU216DAVISWMX,2013-06-15 21:01:00,
2013-06-15 17:06:00,75.1,52.3,29.94,NNW,327,4.0,6.0,45,0.00,,,0.01,WUHU216DAVISWMX,2013-06-15 21:06:00,
2013-06-15 17:12:00,75.1,52.9,29.94,NW,316,5.0,6.0,46,0.00,,,0.01,WUHU216DAVISWMX,2013-06-15 21:12:00,
2013-06-15 17:17:00,74.9,52.1,29.94,NW,319,0.0,5.0,45,0.00,,,0.01,WUHU216DAVISWMX,2013-06-15 21:17:00,
2013-06-15 17:22:00,74.9,52.7,29.94,NW,318,2.0,5.0,46,0.00,,,0.01,WUHU216DAVISWMX,2013-06-15 21:22:00,
2013-06-15 17:27:00,74.9,52.7,29.94,NW,307,4.0,5.0,46,0.00,,,0.01,WUHU216DAVISWMX,2013-06-15 21:27:00,
2013-06-15 17:32:00,74.7,53.2,29.94,NW,322,2.0,5.0,47,0.00,,,0.01,WUHU216DAVISWMX,2013-06-15 21:32:00,
2013-06-15 17:37:00,74.6,53.1,29.94,NW,322,1.0,6.0,47,0.00,,,0.01,WUHU216DAVISWMX,2013-06-15 21:37:00,
2013-06-15 17:42:00,74.6,54.2,29.94,NW,305,0.0,6.0,49,0.00,,,0.01,WUHU216DAVISWMX,2013-06-15 21:42:00,
2013-06-15 17:47:00,74.3,51.6,29.94,NW,326,1.0,5.0,45,0.00,,,0.01,WUHU216DAVISWMX,2013-06-15 21:47:00,
2013-06-15 17:52:00,74.2,53.3,29.94,NW,313,3.0,5.0,48,0.00,,,0.01,WUHU216DAVISWMX,2013-06-15 21:52:00,
2013-06-15 17:57:00,74.2,53.9,29.94,WNW,295,1.0,5.0,49,0.00,,,0.01,WUHU216DAVISWMX,2013-06-15 21:57:00,
2013-06-15 18:02:00,74.0,51.9,29.94,NW,326,4.0,5.0,46,0.00,,,0.01,WUHU216DAVISWMX,2013-06-15 22:02:00,
2013-06-15 18:07:00,73.9,53.6,29.95,NW,325,0.0,5.0,49,0.00,,,0.01,WUHU216DAVISWMX,2013-06-15 22:07:00,
2013-06-15 18:12:00,73.8,53.5,29.94,NW,325,1.0,3.0,49,0.00,,,0.01,WUHU216DAVISWMX,2013-06-15 22:12:00,
2013-06-15 18:17:00,73.6,54.4,29.94,NW,324,0.0,5.0,51,0.00,,,0.01,WUHU216DAVISWMX,2013-06-15 22:17:00,
2013-06-15 18:22:00,73.4,56.9,29.94,NW,324,0.0,5.0,56,0.00,,,0.01,WUHU216DAVISWMX,2013-06-15 22:22:00,
2013-06-15 18:27:00,73.3,55.8,29.94,NW,309,1.0,2.0,54,0.00,,,0.01,WUHU216DAVISWMX,2013-06-15 22:27:00,
2013-06-15 18:32:00,73.2,55.7,29.95,WNW,298,1.0,3.0,54,0.00,,,0.01,WUHU216DAVISWMX,2013-06-15 22:32:00,
2013-06-15 18:37:00,72.9,55.9,29.95,NW,305,1.0,4.0,55,0.00,,,0.01,WUHU216DAVISWMX,2013-06-15 22:37:00,
2013-06-15 18:42:00,72.8,54.3,29.95,SSE,165,1.0,4.0,52,0.00,,,0.01,WUHU216DAVISWMX,2013-06-15 22:42:00,
2013-06-15 18:47:00,72.9,55.9,29.95,NW,308,0.0,3.0,55,0.00,,,0.01,WUHU216DAVISWMX,2013-06-15 22:47:00,
2013-06-15 18:52:00,72.7,55.2,29.95,NW,308,0.0,3.0,54,0.00,,,0.01,WUHU216DAVISWMX,2013-06-15 22:52:00,
2013-06-15 18:57:00,72.6,55.7,29.95,NW,308,0.0,1.0,55,0.00,,,0.01,WUHU216DAVISWMX,2013-06-15 22:57:00,
2013-06-15 19:02:00,72.4,56.0,29.95,NW,308,0.0,2.0,56,0.00,,,0.01,WUHU216DAVISWMX,2013-06-15 23:02:00,
2013-06-15 19:07:00,72.2,56.8,29.95,NW,308,0.0,2.0,58,0.00,,,0.01,WUHU216DAVISWMX,2013-06-15 23:07:00,
2013-06-15 19:12:00,72.0,56.6,29.95,NW,308,0.0,0.0,58,0.00,,,0.01,WUHU216DAVISWMX,2013-06-15 23:12:00,
2013-06-15 19:17:00,71.8,57.4,29.95,NW,308,0.0,0.0,60,0.00,,,0.01,WUHU216DAVISWMX,2013-06-15 23:17:00,
2013-06-15 19:22:00,71.6,57.2,29.95,NW,308,0.0,2.0,60,0.00,,,0.01,WUHU216DAVISWMX,2013-06-15 23:22:00,
2013-06-15 19:27:00,71.4,56.5,29.95,NW,308,0.0,2.0,59,0.00,,,0.01,WUHU216DAVISWMX,2013-06-15 23:27:00,
2013-06-15 19:32:00,71.3,57.8,29.95,NW,308,0.0,1.0,62,0.00,,,0.01,WUHU216DAVISWMX,2013-06-15 23:32:00,
2013-06-15 19:37:00,71.0,58.0,29.95,NW,308,0.0,0.0,63,0.00,,,0.01,WUHU216DAVISWMX,2013-06-15 23:37:00,
2013-06-15 19:42:00,70.8,57.8,29.95,NW,308,0.0,0.0,63,0.00,,,0.01,WUHU216DAVISWMX,2013-06-15 23:42:00,
2013-06-15 19:47:00,70.6,58.0,29.95,NW,308,0.0,0.0,64,0.00,,,0.01,WUHU216DAVISWMX,2013-06-15 23:47:00,
2013-06-15 19:52:00,70.3,59.0,29.95,NW,308,0.0,0.0,67,0.00,,,0.01,WUHU216DAVISWMX,2013-06-15 23:52:00,
2013-06-15 19:57:00,70.1,58.4,29.95,NW,308,0.0,0.0,66,0.00,,,0.01,WUHU216DAVISWMX,2013-06-15 23:57:00,
2013-06-15 20:02:00,69.9,58.2,29.95,NW,308,0.0,0.0,66,0.00,,,0.01,WUHU216DAVISWMX,2013-06-16 00:02:00,
2013-06-15 20:07:00,69.6,58.8,29.95,NW,308,0.0,0.0,68,0.00,,,0.01,WUHU216DAVISWMX,2013-06-16 00:07:00,
2013-06-15 20:12:00,69.3,58.9,29.95,NW,308,0.0,0.0,69,0.00,,,0.01,WUHU216DAVISWMX,2013-06-16 00:12:00,
2013-06-15 20:17:00,69.0,59.0,29.95,NW,308,0.0,0.0,70,0.00,,,0.01,WUHU216DAVISWMX,2013-06-16 00:17:00,
2013-06-15 20:22:00,68.6,59.0,29.96,NW,308,0.0,0.0,71,0.00,,,0.01,WUHU216DAVISWMX,2013-06-16 00:22:00,
2013-06-15 20:27:00,68.3,58.3,29.96,NW,308,0.0,0.0,70,0.00,,,0.01,WUHU216DAVISWMX,2013-06-16 00:27:00,
2013-06-15 20:32:00,67.8,59.0,29.96,NW,308,0.0,0.0,73,0.00,,,0.01,WUHU216DAVISWMX,2013-06-16 00:32:00,
2013-06-15 20:37:00,67.5,58.7,29.96,NW,308,0.0,0.0,73,0.00,,,0.01,WUHU216DAVISWMX,2013-06-16 00:37:00,
2013-06-15 20:42:00,67.1,58.7,29.96,NW,308,0.0,0.0,74,0.00,,,0.01,WUHU216DAVISWMX,2013-06-16 00:42:00,
2013-06-15 20:47:00,66.8,58.7,29.97,NW,308,0.0,0.0,75,0.00,,,0.01,WUHU216DAVISWMX,2013-06-16 00:47:00,
2013-06-15 20:52:00,66.5,58.5,29.97,NW,308,0.0,0.0,75,0.00,,,0.01,WUHU216DAVISWMX,2013-06-16 00:52:00,
2013-06-15 20:57:00,66.1,58.8,29.96,NW,308,0.0,0.0,77,0.00,,,0.01,WUHU216DAVISWMX,2013-06-16 00:57:00,
2013-06-15 21:02:00,65.8,58.8,29.97,NW,308,0.0,0.0,78,0.00,,,0.01,WUHU216DAVISWMX,2013-06-16 01:02:00,
2013-06-15 21:07:00,65.5,58.9,29.97,NW,308,0.0,0.0,79,0.00,,,0.01,WUHU216DAVISWMX,2013-06-16 01:07:00,
2013-06-15 21:12:00,65.1,58.5,29.97,NW,308,0.0,0.0,79,0.00,,,0.01,WUHU216DAVISWMX,2013-06-16 01:12:00,
2013-06-15 21:17:00,64.8,58.6,29.97,NW,308,0.0,0.0,80,0.00,,,0.01,WUHU216DAVISWMX,2013-06-16 01:17:00,
2013-06-15 21:22:00,64.4,58.5,29.98,NW,308,0.0,0.0,81,0.00,,,0.01,WUHU216DAVISWMX,2013-06-16 01:22:00,
2013-06-15 21:27:00,64.2,58.3,29.98,NW,308,0.0,0.0,81,0.00,,,0.01,WUHU216DAVISWMX,2013-06-16 01:27:00,
2013-06-15 21:32:00,64.0,58.4,29.98,NW,308,0.0,0.0,82,0.00,,,0.01,WUHU216DAVISWMX,2013-06-16 01:32:00,
2013-06-15 21:37:00,63.7,58.1,29.98,NW,308,0.0,0.0,82,0.00,,,0.01,WUHU216DAVISWMX,2013-06-16 01:37:00,
2013-06-15 21:42:00,63.5,58.3,29.98,NW,308,0.0,0.0,83,0.00,,,0.01,WUHU216DAVISWMX,2013-06-16 01:42:00,
2013-06-15 21:47:00,63.2,58.3,29.98,NW,308,0.0,0.0,84,0.00,,,0.01,WUHU216DAVISWMX,2013-06-16 01:47:00,
2013-06-15 21:52:00,63.0,57.8,29.99,NW,308,0.0,0.0,83,0.00,,,0.01,WUHU216DAVISWMX,2013-06-16 01:52:00,
2013-06-15 21:57:00,62.8,57.9,29.99,NW,308,0.0,0.0,84,0.00,,,0.01,WUHU216DAVISWMX,2013-06-16 01:57:00,
2013-06-15 22:02:00,62.5,57.9,29.99,NW,308,0.0,0.0,85,0.00,,,0.01,WUHU216DAVISWMX,2013-06-16 02:02:00,
2013-06-15 22:07:00,62.2,57.6,29.99,NW,308,0.0,0.0,85,0.00,,,0.01,WUHU216DAVISWMX,2013-06-16 02:07:00,
2013-06-15 22:12:00,62.0,57.4,29.99,NW,308,0.0,0.0,85,0.00,,,0.01,WUHU216DAVISWMX,2013-06-16 02:12:00,
2013-06-15 22:17:00,61.7,57.5,29.99,NW,308,0.0,0.0,86,0.00,,,0.01,WUHU216DAVISWMX,2013-06-16 02:17:00,
2013-06-15 22:22:00,61.6,57.4,29.99,NW,308,0.0,0.0,86,0.00,,,0.01,WUHU216DAVISWMX,2013-06-16 02:22:00,
2013-06-15 22:27:00,61.2,57.3,30.00,NW,308,0.0,0.0,87,0.00,,,0.01,WUHU216DAVISWMX,2013-06-16 02:27:00,
2013-06-15 22:32:00,61.0,57.1,30.00,NW,308,0.0,0.0,87,0.00,,,0.01,WUHU216DAVISWMX,2013-06-16 02:32:00,
2013-06-15 22:37:00,60.8,56.9,30.00,NW,308,0.0,0.0,87,0.00,,,0.01,WUHU216DAVISWMX,2013-06-16 02:37:00,
2013-06-15 22:42:00,60.8,56.9,30.00,NW,308,0.0,0.0,87,0.00,,,0.01,WUHU216DAVISWMX,2013-06-16 02:42:00,
2013-06-15 22:47:00,60.4,56.8,29.99,NW,308,0.0,0.0,88,0.00,,,0.01,WUHU216DAVISWMX,2013-06-16 02:47:00,
2013-06-15 22:52:00,60.3,56.7,30.00,NW,308,0.0,0.0,88,0.00,,,0.01,WUHU216DAVISWMX,2013-06-16 02:52:00,
2013-06-15 22:57:00,60.1,56.5,30.00,NW,308,0.0,0.0,88,0.00,,,0.01,WUHU216DAVISWMX,2013-06-16 02:57:00,
2013-06-15 23:02:00,60.0,56.7,30.00,NW,308,0.0,0.0,89,0.00,,,0.01,WUHU216DAVISWMX,2013-06-16 03:02:00,
2013-06-15 23:07:00,59.8,56.5,29.99,NW,308,0.0,0.0,89,0.00,,,0.01,WUHU216DAVISWMX,2013-06-16 03:07:00,
2013-06-15 23:12:00,59.6,56.6,30.00,NW,308,0.0,0.0,90,0.00,,,0.01,WUHU216DAVISWMX,2013-06-16 03:12:00,
2013-06-15 23:17:00,59.4,56.4,30.00,NW,308,0.0,0.0,90,0.00,,,0.01,WUHU216DAVISWMX,2013-06-16 03:17:00,
2013-06-15 23:22:00,59.3,56.3,30.00,NW,308,0.0,0.0,90,0.00,,,0.01,WUHU216DAVISWMX,2013-06-16 03:22:00,
2013-06-15 23:27:00,59.1,56.1,30.00,NW,308,0.0,0.0,90,0.00,,,0.01,WUHU216DAVISWMX,2013-06-16 03:27:00,
2013-06-15 23:32:00,59.0,56.0,30.00,NW,308,0.0,0.0,90,0.00,,,0.01,WUHU216DAVISWMX,2013-06-16 03:32:00,
2013-06-15 23:37:00,58.9,55.9,30.01,NW,308,0.0,0.0,90,0.00,,,0.01,WUHU216DAVISWMX,2013-06-16 03:37:00,
2013-06-15 23:42:00,58.6,55.6,30.00,NW,308,0.0,0.0,90,0.00,,,0.01,WUHU216DAVISWMX,2013-06-16 03:42:00,
2013-06-15 23:47:00,58.6,55.9,30.01,NW,308,0.0,0.0,91,0.00,,,0.01,WUHU216DAVISWMX,2013-06-16 03:47:00,
2013-06-15 23:52:00,58.4,55.7,30.00,NW,308,0.0,0.0,91,0.00,,,0.01,WUHU216DAVISWMX,2013-06-16 03:52:00,
2013-06-15 23:57:00,58.2,55.6,30.00,NW,308,0.0,0.0,91,0.00,,,0.01,WUHU216DAVISWMX,2013-06-16 03:57:00,